Location: Dammartin
(48.9032°N, 1.6195°E)
Time: 16:35:54
(UTC+00:00)

S3M - Pass Details

Date: 03 February 2023
Orbit: 948 x 1005 km, 83.0° (Epoch: 30 March)

Event Time Altitude Azimuth Distance (km) Brightness Sun altitude
Rises 18:28:41 0° 163° (SSE) 3,718 6.9 -15.8°
Reaches altitude 10° 18:31:20 10° 157° (SSE) 2,774 6.2 -16.2°
Maximum altitude 18:37:16 42° 89° (E) 1,397 4.3 -17.2°
Drops below altitude 10° 18:43:12 10° 21° (NNE) 2,781 6.1 -18.1°
Sets 18:45:51 0° 15° (NNE) 3,729 6.9 -18.6°
